Weather in Staraya Sloboda

Russia / Saint-Petersburg and Leningrad Oblast     60°46′34″N   33°19′03″E
temp.,
°C
wind,
m/s
gust,
m/s
humid.,
%
clouds,
%
prec.,
mm/h
press.,
hPa
HPBL,
m
17 april, sat
sat1700:00+2ene312875 0.0 1032274
03:00+1ene39905 0.0 1032197
06:000ene39885 0.0 1033168
09:00+6ene37645 0.0 1033320
12:00+11ene464942 0.0 1032922
15:00+12ene46474 0.0 10321124
18:00+10ene46574 0.0 1030915
21:00+5ne39854 0.0 1031248
18 april, sun
sun1800:00+3ne29815 0.0 1031189
03:00+2ne27895 0.0 1032139
06:00+2ne28924 0.0 1032163
09:00+7ene36701 0.0 1032362
12:00+11ene46475 0.0 10311173
15:00+12ene56455 0.0 10311393
18:00+11ene46585 0.0 10311166
21:00+6ne3108118 0.0 1032357
19 april, mon
mon1900:00+4ene39905 0.0 1033296
03:00+2ene38920 0.0 1033198
06:00+1ene37890 0.0 1033182
09:00+6ene36580 0.0 1033507
12:00+9e46400 0.0 10321275
15:00+11e45372 0.0 10321613
18:00+10e35445 0.0 10311555
21:00+4ene286925 0.0 1031184
20 april, tue
tue2000:00+3ene3973100 0.0 1031227
03:00+2e2775100 0.0 1030151
06:00+1e277799 0.0 1030182
09:00+6ese37520 0.0 1029643
12:00+9ese57355 0.0 10271593
15:00+11ese5731100 0.0 10251874
18:00+9ese4748100 0.0 10231600
21:00+6ese387060 0.0 1023273
21 april, wed
wed2100:00+4ene3981100 0.0 1021204
03:00+4ene31077100 0.0 1019278
06:00+3ene31077100 0.0 1016346
09:00+5e41164100 0.0 1013682
12:00+2e41195100 1.6 1010732
15:00+3e4989100 2.0 1008801
18:00+3e3897100 0.4 1006647
21:00+2e2797100 1.5 1005335